Time,TemperatureF,DewpointF,PressureIn,WindDirection,WindDirectionDegrees,WindSpeedMPH,WindSpeedGustMPH,Humidity,HourlyPrecipIn,Conditions,Clouds,dailyrainin,SoftwareType,DateUTC
2013-03-09 00:00:00,41.7,38.0,30.14,North,355,0.0,-999.0,87,-99.99,,,0.01,weatherlink.com 1.10,2013-03-09 08:00:00,
2013-03-09 00:15:00,41.7,38.0,30.14,North,355,0.0,-999.0,88,-99.99,,,0.00,weatherlink.com 1.10,2013-03-09 08:15:00,
2013-03-09 00:30:00,41.7,38.0,30.15,North,355,0.0,-999.0,88,-99.99,,,0.00,weatherlink.com 1.10,2013-03-09 08:30:00,
2013-03-09 00:45:00,41.4,38.0,30.15,North,355,0.0,-999.0,88,-99.99,,,0.00,weatherlink.com 1.10,2013-03-09 08:45:00,
2013-03-09 01:00:00,40.4,38.0,30.16,North,355,0.0,-999.0,89,-99.99,,,0.00,weatherlink.com 1.10,2013-03-09 09:00:00,
2013-03-09 01:15:00,40.2,38.0,30.16,North,355,0.0,-999.0,90,-99.99,,,0.00,weatherlink.com 1.10,2013-03-09 09:15:00,
2013-03-09 01:30:00,40.2,38.0,30.17,North,355,0.0,-999.0,91,-99.99,,,0.00,weatherlink.com 1.10,2013-03-09 09:30:00,
2013-03-09 01:45:00,40.9,39.0,30.17,North,355,0.0,-999.0,91,-99.99,,,0.00,weatherlink.com 1.10,2013-03-09 09:45:00,
2013-03-09 02:00:00,40.8,38.0,30.17,North,355,0.0,-999.0,90,-99.99,,,0.00,weatherlink.com 1.10,2013-03-09 10:00:00,
2013-03-09 02:15:00,41.1,39.0,30.18,North,355,1.0,-999.0,92,-99.99,,,0.00,weatherlink.com 1.10,2013-03-09 10:15:00,
2013-03-09 02:30:00,40.5,39.0,30.18,North,355,0.0,-999.0,93,-99.99,,,0.00,weatherlink.com 1.10,2013-03-09 10:30:00,
2013-03-09 02:45:00,40.5,39.0,30.18,North,355,0.0,-999.0,94,-99.99,,,0.00,weatherlink.com 1.10,2013-03-09 10:45:00,
2013-03-09 03:00:00,40.3,39.0,30.19,North,355,0.0,-999.0,94,-99.99,,,0.00,weatherlink.com 1.10,2013-03-09 11:00:00,
2013-03-09 03:15:00,40.0,39.0,30.19,North,355,0.0,-999.0,95,-99.99,,,0.00,weatherlink.com 1.10,2013-03-09 11:15:00,
2013-03-09 03:30:00,39.8,39.0,30.19,North,355,0.0,-999.0,95,-99.99,,,0.00,weatherlink.com 1.10,2013-03-09 11:30:00,
2013-03-09 03:45:00,39.4,38.0,30.20,North,355,0.0,-999.0,95,-99.99,,,0.00,weatherlink.com 1.10,2013-03-09 11:45:00,
2013-03-09 04:00:00,39.4,38.0,30.20,North,355,0.0,-999.0,95,-99.99,,,0.00,weatherlink.com 1.10,2013-03-09 12:00:00,
2013-03-09 04:15:00,39.0,38.0,30.20,North,355,0.0,-999.0,95,-99.99,,,0.00,weatherlink.com 1.10,2013-03-09 12:15:00,
2013-03-09 04:30:00,38.5,37.0,30.21,North,355,1.0,-999.0,95,-99.99,,,0.00,weatherlink.com 1.10,2013-03-09 12:30:00,
2013-03-09 04:45:00,38.0,37.0,30.21,North,355,0.0,-999.0,95,-99.99,,,0.00,weatherlink.com 1.10,2013-03-09 12:45:00,
2013-03-09 05:00:00,37.6,37.0,30.21,North,355,0.0,-999.0,96,-99.99,,,0.00,weatherlink.com 1.10,2013-03-09 13:00:00,
2013-03-09 05:15:00,36.4,35.0,30.22,North,355,0.0,-999.0,96,-99.99,,,0.00,weatherlink.com 1.10,2013-03-09 13:15:00,
2013-03-09 05:30:00,35.6,35.0,30.23,North,355,0.0,-999.0,96,-99.99,,,0.00,weatherlink.com 1.10,2013-03-09 13:30:00,
2013-03-09 05:45:00,34.8,34.0,30.23,North,355,0.0,-999.0,96,-99.99,,,0.00,weatherlink.com 1.10,2013-03-09 13:45:00,
2013-03-09 06:00:00,34.6,34.0,30.24,North,355,0.0,-999.0,96,-99.99,,,0.00,weatherlink.com 1.10,2013-03-09 14:00:00,
2013-03-09 06:15:00,35.5,35.0,30.25,North,355,0.0,-999.0,96,-99.99,,,0.00,weatherlink.com 1.10,2013-03-09 14:15:00,
2013-03-09 06:30:00,34.4,33.0,30.24,North,355,0.0,-999.0,96,-99.99,,,0.00,weatherlink.com 1.10,2013-03-09 14:30:00,
2013-03-09 06:45:00,34.2,34.0,30.25,North,355,0.0,-999.0,97,-99.99,,,0.00,weatherlink.com 1.10,2013-03-09 14:45:00,
2013-03-09 07:00:00,34.4,34.0,30.26,North,355,0.0,-999.0,97,-99.99,,,0.00,weatherlink.com 1.10,2013-03-09 15:00:00,
2013-03-09 07:15:00,36.5,36.0,30.27,North,355,0.0,-999.0,97,-99.99,,,0.00,weatherlink.com 1.10,2013-03-09 15:15:00,
2013-03-09 07:30:00,36.9,36.0,30.28,North,355,0.0,-999.0,97,-99.99,,,0.00,weatherlink.com 1.10,2013-03-09 15:30:00,
2013-03-09 07:45:00,37.3,37.0,30.29,North,355,0.0,-999.0,97,-99.99,,,0.00,weatherlink.com 1.10,2013-03-09 15:45:00,
2013-03-09 08:00:00,37.4,37.0,30.30,North,355,0.0,-999.0,97,-99.99,,,0.00,weatherlink.com 1.10,2013-03-09 16:00:00,
2013-03-09 08:15:00,38.0,37.0,30.30,North,355,0.0,-999.0,97,-99.99,,,0.00,weatherlink.com 1.10,2013-03-09 16:15:00,
2013-03-09 08:30:00,38.0,37.0,30.30,North,355,0.0,-999.0,97,-99.99,,,0.00,weatherlink.com 1.10,2013-03-09 16:30:00,
2013-03-09 08:45:00,37.9,37.0,30.31,North,5,0.0,-999.0,97,-99.99,,,0.00,weatherlink.com 1.10,2013-03-09 16:45:00,
2013-03-09 09:00:00,37.9,37.0,30.30,NNE,29,1.0,-999.0,97,-99.99,,,0.00,weatherlink.com 1.10,2013-03-09 17:00:00,
2013-03-09 09:15:00,38.2,38.0,30.31,ENE,63,0.0,-999.0,98,-99.99,,,0.00,weatherlink.com 1.10,2013-03-09 17:15:00,
2013-03-09 09:30:00,38.6,38.0,30.31,ENE,69,0.0,-999.0,98,-99.99,,,0.00,weatherlink.com 1.10,2013-03-09 17:30:00,
2013-03-09 09:45:00,38.8,38.0,30.32,ENE,68,1.0,-999.0,98,-99.99,,,0.00,weatherlink.com 1.10,2013-03-09 17:45:00,
2013-03-09 10:00:00,40.0,40.0,30.32,ENE,69,0.0,-999.0,98,-99.99,,,0.00,weatherlink.com 1.10,2013-03-09 18:00:00,
2013-03-09 10:15:00,41.6,41.0,30.32,ENE,69,0.0,-999.0,98,-99.99,,,0.00,weatherlink.com 1.10,2013-03-09 18:15:00,
2013-03-09 10:30:00,42.8,42.0,30.33,SE,139,0.0,-999.0,98,-99.99,,,0.00,weatherlink.com 1.10,2013-03-09 18:30:00,
2013-03-09 10:45:00,42.5,42.0,30.34,SSE,168,0.0,-999.0,98,-99.99,,,0.00,weatherlink.com 1.10,2013-03-09 18:45:00,
2013-03-09 11:00:00,43.2,42.0,30.34,South,172,1.0,-999.0,97,-99.99,,,0.00,weatherlink.com 1.10,2013-03-09 19:00:00,
2013-03-09 11:15:00,45.0,43.0,30.35,SSW,207,0.0,-999.0,94,-99.99,,,0.00,weatherlink.com 1.10,2013-03-09 19:15:00,
2013-03-09 11:30:00,46.4,43.0,30.35,SSW,207,3.0,-999.0,88,-99.99,,,0.00,weatherlink.com 1.10,2013-03-09 19:30:00,
2013-03-09 11:45:00,46.5,42.0,30.35,SSW,207,0.0,-999.0,85,-99.99,,,0.00,weatherlink.com 1.10,2013-03-09 19:45:00,
2013-03-09 12:00:00,46.9,42.0,30.36,SSW,206,0.0,-999.0,84,-99.99,,,0.00,weatherlink.com 1.10,2013-03-09 20:00:00,
2013-03-09 12:15:00,48.7,43.0,30.35,SSW,207,0.0,-999.0,80,-99.99,,,0.00,weatherlink.com 1.10,2013-03-09 20:15:00,
2013-03-09 12:30:00,48.0,42.0,30.35,SSW,200,0.0,-999.0,79,-99.99,,,0.00,weatherlink.com 1.10,2013-03-09 20:30:00,
2013-03-09 12:45:00,48.8,43.0,30.34,SSW,193,1.0,-999.0,79,-99.99,,,0.00,weatherlink.com 1.10,2013-03-09 20:45:00,
2013-03-09 13:00:00,48.8,42.0,30.34,South,189,0.0,-999.0,77,-99.99,,,0.00,weatherlink.com 1.10,2013-03-09 21:00:00,
2013-03-09 13:15:00,51.1,42.0,30.34,South,180,2.0,-999.0,70,-99.99,,,0.00,weatherlink.com 1.10,2013-03-09 21:15:00,
2013-03-09 13:30:00,50.4,42.0,30.34,South,179,0.0,-999.0,73,-99.99,,,0.00,weatherlink.com 1.10,2013-03-09 21:30:00,
2013-03-09 13:45:00,52.1,44.0,30.33,South,182,2.0,-999.0,75,-99.99,,,0.00,weatherlink.com 1.10,2013-03-09 21:45:00,
2013-03-09 14:00:00,52.1,43.0,30.33,South,182,1.0,-999.0,72,-99.99,,,0.00,weatherlink.com 1.10,2013-03-09 22:00:00,
2013-03-09 14:15:00,53.2,47.0,30.33,South,182,0.0,-999.0,80,-99.99,,,0.00,weatherlink.com 1.10,2013-03-09 22:15:00,
2013-03-09 14:30:00,53.6,44.0,30.34,South,182,2.0,-999.0,69,-99.99,,,0.00,weatherlink.com 1.10,2013-03-09 22:30:00,
2013-03-09 14:45:00,53.9,41.0,30.33,South,182,0.0,-999.0,61,-99.99,,,0.00,weatherlink.com 1.10,2013-03-09 22:45:00,
2013-03-09 15:00:00,53.3,40.0,30.33,South,182,1.0,-999.0,62,-99.99,,,0.00,weatherlink.com 1.10,2013-03-09 23:00:00,
2013-03-09 15:15:00,54.4,41.0,30.34,South,182,2.0,-999.0,61,-99.99,,,0.00,weatherlink.com 1.10,2013-03-09 23:15:00,
2013-03-09 15:30:00,54.3,41.0,30.34,South,183,1.0,-999.0,62,-99.99,,,0.00,weatherlink.com 1.10,2013-03-09 23:30:00,
2013-03-09 15:45:00,53.7,41.0,30.34,South,175,0.0,-999.0,63,-99.99,,,0.00,weatherlink.com 1.10,2013-03-09 23:45:00,
2013-03-09 16:00:00,53.9,41.0,30.34,South,177,0.0,-999.0,61,-99.99,,,0.00,weatherlink.com 1.10,2013-03-10 00:00:00,
2013-03-09 16:15:00,52.7,40.0,30.34,SE,136,0.0,-999.0,62,-99.99,,,0.00,weatherlink.com 1.10,2013-03-10 00:15:00,
2013-03-09 16:31:00,53.1,41.0,30.34,SE,136,0.0,-999.0,63,-99.99,,,0.00,weatherlink.com 1.10,2013-03-10 00:31:00,
2013-03-09 16:46:00,53.7,41.0,30.34,SE,136,0.0,-999.0,62,-99.99,,,0.00,weatherlink.com 1.10,2013-03-10 00:46:00,
2013-03-09 17:01:00,54.0,41.0,30.34,SE,136,1.0,-999.0,61,-99.99,,,0.00,weatherlink.com 1.10,2013-03-10 01:01:00,
2013-03-09 17:16:00,52.3,40.0,30.34,SE,136,0.0,-999.0,64,-99.99,,,0.00,weatherlink.com 1.10,2013-03-10 01:16:00,
2013-03-09 17:31:00,52.0,40.0,30.34,SE,136,0.0,-999.0,65,-99.99,,,0.00,weatherlink.com 1.10,2013-03-10 01:31:00,
2013-03-09 17:46:00,51.9,41.0,30.35,SE,136,0.0,-999.0,66,-99.99,,,0.00,weatherlink.com 1.10,2013-03-10 01:46:00,
2013-03-09 18:01:00,51.6,40.0,30.35,SE,136,0.0,-999.0,66,-99.99,,,0.00,weatherlink.com 1.10,2013-03-10 02:01:00,
2013-03-09 18:16:00,51.1,41.0,30.36,SE,136,0.0,-999.0,68,-99.99,,,0.00,weatherlink.com 1.10,2013-03-10 02:16:00,
2013-03-09 18:32:00,51.0,41.0,30.36,SE,136,0.0,-999.0,68,-99.99,,,0.00,weatherlink.com 1.10,2013-03-10 02:32:00,
2013-03-09 18:46:00,50.8,41.0,30.36,SE,136,0.0,-999.0,69,-99.99,,,0.00,weatherlink.com 1.10,2013-03-10 02:46:00,
2013-03-09 19:01:00,50.4,41.0,30.36,SE,136,0.0,-999.0,69,-99.99,,,0.00,weatherlink.com 1.10,2013-03-10 03:01:00,
2013-03-09 19:30:00,49.9,40.0,30.37,SE,136,0.0,-999.0,69,-99.99,,,0.00,weatherlink.com 1.10,2013-03-10 03:30:00,
2013-03-09 19:45:00,47.7,42.0,30.38,SSE,164,1.0,-999.0,81,-99.99,,,0.00,weatherlink.com 1.10,2013-03-10 03:45:00,
2013-03-09 20:15:00,45.6,42.0,30.38,SW,227,3.0,-999.0,87,-99.99,,,0.00,weatherlink.com 1.10,2013-03-10 04:15:00,
2013-03-09 20:45:00,44.6,41.0,30.38,West,264,3.0,-999.0,88,-99.99,,,0.00,weatherlink.com 1.10,2013-03-10 04:45:00,
2013-03-09 21:15:00,44.1,41.0,30.38,West,279,3.0,-999.0,87,-99.99,,,0.00,weatherlink.com 1.10,2013-03-10 05:15:00,
2013-03-09 21:30:00,43.9,40.0,30.38,West,279,0.0,-999.0,87,-99.99,,,0.00,weatherlink.com 1.10,2013-03-10 05:30:00,
2013-03-09 21:45:00,43.7,40.0,30.39,West,277,0.0,-999.0,87,-99.99,,,0.00,weatherlink.com 1.10,2013-03-10 05:45:00,
2013-03-09 22:00:00,43.6,40.0,30.39,West,279,5.0,-999.0,87,-99.99,,,0.00,weatherlink.com 1.10,2013-03-10 06:00:00,
2013-03-09 22:15:00,44.0,40.0,30.39,WNW,298,4.0,-999.0,85,-99.99,,,0.00,weatherlink.com 1.10,2013-03-10 06:15:00,
2013-03-09 22:30:00,44.0,40.0,30.39,WNW,298,1.0,-999.0,85,-99.99,,,0.00,weatherlink.com 1.10,2013-03-10 06:30:00,
2013-03-09 22:46:00,43.8,40.0,30.39,WNW,298,0.0,-999.0,85,-99.99,,,0.00,weatherlink.com 1.10,2013-03-10 06:46:00,
2013-03-09 23:00:00,43.6,39.0,30.39,WNW,298,0.0,-999.0,85,-99.99,,,0.00,weatherlink.com 1.10,2013-03-10 07:00:00,
2013-03-09 23:15:00,43.3,39.0,30.39,WNW,298,1.0,-999.0,86,-99.99,,,0.00,weatherlink.com 1.10,2013-03-10 07:15:00,
2013-03-09 23:45:00,43.1,39.0,30.39,WNW,298,1.0,-999.0,86,-99.99,,,0.00,weatherlink.com 1.10,2013-03-10 07:45:00,